作者amport625 (啟動)
看板car
標題[問題] 國道超速被開單多久會收到罰單?
時間Sat Jul 6 22:12:07 2019
家裡的車在苗栗嚴重超速 看到國道警察來不及踩煞車
被雷射照到
看罰則是會被扣牌的那種
版友們除了噓外
有沒有這樣超速後多久會收到罰單
or 哪裡可以查到車子已經被開案件處理中的卦
--
※ 發信站: 批踢踢實業坊(ptt.cc), 來自: 114.43.220.154 (臺灣)
※ 文章網址: https://webptt.com/m.aspx?n=bbs/car/M.1562422329.A.72D.html
※ 編輯: amport625 (114.43.220.154 臺灣), 07/06/2019 22:13:28
1F:推 KarlMarx: 看承辦員警心情,至少一個禮拜吧。 07/06 22:14
2F:推 bryanchen98: 通常不會被扣牌啦,繳錢就好了 07/06 22:17
3F:推 frf2pujols17: 差不多跟頭七一樣久 07/06 22:20
4F:推 eric19850629: 通常網路監理系統通知會比寄來的快 07/06 22:24
6F:→ steven0609: ryPay 07/06 22:26
8F:推 rolandyu: 半個月左右 07/06 22:33
9F:噓 EFERO: 網路比較早可以查 但是還是希望你被扣牌 07/06 22:38
10F:噓 hcrcool: 有駕照嗎?有說可以嚴重超速嗎? 07/06 22:39
11F:→ hcrcool: 擔心這個幹嘛 想玩就不要怕啊 07/06 22:39
12F:推 sweetJ: 我有大概1-2個月後才收到罰單...出國那天半夜開車去機場 07/06 22:40
13F:→ sweetJ: 不小心超速,出國玩快一個月...回來後又過1-2個禮拜後才 07/06 22:40
14F:→ sweetJ: 收到 07/06 22:40
15F:噓 best0811: 幹嘛多說了一些話,這會讓正義魔人大舉入侵耶 07/06 22:41
16F:推 Black8910: 收到就知道了阿...之前才逃過一次雷射槍 @@ 07/06 22:41
17F:噓 tonica: 開快車收罰單理所當然 07/06 22:44
18F:推 DriveKing: 吊牌沒差啦 我爸也是開到被吊牌 就換台車開而已XD 07/06 22:46
19F:推 higger: 有次被照到害我心情差很久,後來沒來罰單從今我就不超了 07/06 22:51
20F:→ higger: 所以其實被照到甚至被罰大的,搞不好等於救你一命... 07/06 22:53
21F:推 DSB520: 去辦過戶吧 至少不用扣牌 07/06 23:06
22F:噓 MKIU: 爽喔 07/06 23:09
23F:→ g921: 是在中山高南下.長下坡的狗洞狗仔嗎? 07/06 23:11
24F:推 gtoselina: 兩個星期左右,其實上網查的到 07/06 23:21
25F:推 l1ll: 趁現在過戶就免扣牌了 07/06 23:26
26F:推 enthusiastic: 恭喜 07/06 23:27
27F:噓 flymindtycg: 過戶還是會扣喔!扣牌是不分新舊車主的,別亂教 07/06 23:35
28F:推 hu610346: 嚴重超速是開多少= = 07/06 23:48
29F:→ nicktony: 速限+60以上吧 07/07 00:20
30F:推 GooglePlus: 現在不是超40就算嚴重超速了 07/07 00:27
31F:推 cka: 超過60KM/HR? 07/07 00:42
32F:推 ookiniSN9: 嚴重超速-.- 07/07 01:05
33F:推 poikg: 要快就不要怕 07/07 01:10
34F:推 kaosps2: 要等罰單寄來還要去聽候裁決 之後才扣牌 07/07 01:22
35F:→ pp938077: 所以是開多快 07/07 01:25
36F:推 KittyDog: 開到要扣牌起碼表速180了 07/07 01:33
37F:推 xxxcat: 為什麼這麼多人崩潰 07/07 01:41
38F:推 jazzprozac: 180真敢 07/07 04:11
39F:推 theurgy: 之前一般道路我是過9天才收到照片 07/07 06:49
40F:→ ksk0516: 爽喔問這個要幹嘛 07/07 07:15
41F:噓 tmhs016116: 沒裝雷達防護罩還敢這麼衝 07/07 07:27
42F:→ chinya51: 問那麼多幹麻,收到就去繳錢而以啊 07/07 07:37
43F:推 ETJohn: 沒事沒事,這邊邏輯就是超速比龜車更安全 07/07 08:04
44F:→ ststLiang: 這時候又寧可自己是龜車了 07/07 08:10
45F:推 blindshooter: 有同事過了三個月才收到罰單 07/07 08:12
46F:推 iuexeyz: 讚喔,扣起來剛好 07/07 08:15
47F:推 yhn660713: 之前在國道跨越槽化線過了一個月收到 07/07 08:50
48F:推 Richie1105: 14天後 07/07 08:52
49F:推 dream0955: 國道超速還好 ㄧ堆市區超速被扣牌的XD 跟鄉民認真就 07/07 09:31
50F:→ dream0955: 輸了 07/07 09:31
51F:推 kizo: 19天內會到 07/07 09:33
52F:推 Seattle995: 監理站系統是寫說違規後8-14天可以查到,我是約21天查 07/07 09:37
53F:→ Seattle995: 到,再過幾天收到掛號信,國三造橋地磅站前(避車道)被 07/07 09:37
54F:→ Seattle995: 雷射打到146km/hr,早上5:23,罰款3500 07/07 09:38
55F:→ Seattle995: 距離485m喔,根本是視距外了,三眼雷射性能真好~ 07/07 09:38
56F:推 Bboykeyes: 建議裝防護罩 07/07 09:41
57F:噓 st930617: 超一點就算了超速60還有人可以護航 07/07 10:36
58F:推 trickart: 推 正義魔人這輩子沒違停過? 害人閃違停撞死比超速還糟 07/07 10:39
59F:推 newton12: 市區超速,約3週收到 07/07 12:45
60F:推 c1396: 放心這邊龜車才是罪該萬死 07/07 13:20
61F:推 ChaBoyy: 市區超速 一個禮拜馬上收到 07/07 16:37
62F:→ ganninian: 恭喜 07/07 17:37
63F:推 michael0725: 一個禮拜就有了 07/07 21:34
64F:推 enkidu0830: 感謝您為國辛勞 07/08 18:51